| time (UTC) | temp C | wind direction | speed KPH | gust KPH | rain 1hr cm | rain 24hr cm | rain mn cm | humidity % | barometer mb |
| 20260504041945 | 7 | 25 | 0.0 | 0.0 | 0.00 | 0.00 | 0.00 | 69 | 1013.5 |
| 20260504041441 | 7 | 21 | 0.0 | 0.0 | 0.00 | 0.00 | 0.00 | 68 | 1013.4 |
| 20260504040937 | 7 | 18 | 0.0 | 0.0 | 0.00 | 0.00 | 0.00 | 67 | 1013.4 |
| 20260504040435 | 7 | 18 | 0.0 | 0.0 | 0.00 | 0.00 | 0.00 | 66 | 1013.6 |
| 20260504035931 | 7 | 21 | 0.0 | 0.0 | 0.00 | 0.00 | 0.00 | 65 | 1013.3 |
| 20260504035429 | 7 | 22 | 0.0 | 0.0 | 0.00 | 0.00 | 0.00 | 63 | 1013.3 |
| 20260504034925 | 7 | 22 | 0.0 | 0.0 | 0.00 | 0.00 | 0.00 | 63 | 1013.4 |
| 20260504034423 | 8 | 22 | 0.0 | 0.0 | 0.00 | 0.00 | 0.00 | 62 | 1013.3 |
| 20260504033920 | 8 | 22 | 0.0 | 0.0 | 0.00 | 0.00 | 0.00 | 62 | 1013.2 |
| 20260504033418 | 8 | 22 | 0.0 | 0.0 | 0.00 | 0.00 | 0.00 | 61 | 1013.4 |
| 20260504032914 | 8 | 23 | 0.0 | 0.0 | 0.00 | 0.00 | 0.00 | 61 | 1013.4 |
| 20260504032411 | 8 | 23 | 0.0 | 0.0 | 0.00 | 0.00 | 0.00 | 61 | 1013.3 |
| 20260504031908 | 8 | 22 | 0.0 | 0.0 | 0.00 | 0.00 | 0.00 | 59 | 1013.4 |
| 20260504031405 | 9 | 22 | 0.0 | 0.0 | 0.00 | 0.00 | 0.00 | 59 | 1013.6 |
| 20260504030901 | 9 | 21 | 0.0 | 1.6 | 0.00 | 0.00 | 0.00 | 57 | 1013.4 |
| 20260504030359 | 9 | 20 | 0.0 | 0.0 | 0.00 | 0.00 | 0.00 | 56 | 1013.6 |
| 20260504025854 | 10 | 20 | 0.0 | 0.0 | 0.00 | 0.00 | 0.00 | 56 | 1013.5 |
| 20260504025352 | 10 | 20 | 0.0 | 1.6 | 0.00 | 0.00 | 0.00 | 57 | 1013.4 |
| 20260504024848 | 10 | 17 | 0.0 | 0.0 | 0.00 | 0.00 | 0.00 | 56 | 1013.5 |
| 20260504024345 | 10 | 23 | 0.0 | 0.0 | 0.00 | 0.00 | 0.00 | 54 | 1013.5 |
| 20260504023842 | 10 | 24 | 0.0 | 0.0 | 0.00 | 0.00 | 0.00 | 56 | 1013.6 |
| 20260504023339 | 10 | 20 | 0.0 | 0.0 | 0.00 | 0.00 | 0.00 | 53 | 1013.6 |
| 20260504022834 | 10 | 19 | 0.0 | 0.0 | 0.00 | 0.00 | 0.00 | 53 | 1013.6 |
| 20260504022331 | 10 | 19 | 0.0 | 0.0 | 0.00 | 0.00 | 0.00 | 52 | 1013.6 |
| 20260504021828 | 10 | 12 | 0.0 | 0.0 | 0.00 | 0.00 | 0.00 | 50 | 1013.7 |
| 20260504021325 | 10 | 21 | 0.0 | 0.0 | 0.00 | 0.00 | 0.00 | 53 | 1013.6 |
| 20260504020822 | 10 | 18 | 0.0 | 1.6 | 0.00 | 0.00 | 0.00 | 54 | 1013.8 |
| 20260504020319 | 10 | 21 | 0.0 | 0.0 | 0.00 | 0.00 | 0.00 | 53 | 1013.9 |
| 20260504015815 | 10 | 24 | 0.0 | 0.0 | 0.00 | 0.00 | 0.00 | 53 | 1013.6 |
| 20260504015311 | 10 | 25 | 1.6 | 1.6 | 0.00 | 0.00 | 0.00 | 51 | 1013.7 |
| 20260504014808 | 10 | 27 | 1.6 | 1.6 | 0.00 | 0.00 | 0.00 | 50 | 1013.6 |
| 20260504014303 | 11 | 24 | 0.0 | 0.0 | 0.00 | 0.00 | 0.00 | 53 | 1013.5 |
| 20260504013801 | 11 | 13 | 0.0 | 0.0 | 0.00 | 0.00 | 0.00 | 50 | 1013.6 |
| 20260504013259 | 11 | 23 | 0.0 | 0.0 | 0.00 | 0.00 | 0.00 | 51 | 1013.5 |
| 20260504012755 | 11 | 20 | 0.0 | 0.0 | 0.00 | 0.00 | 0.00 | 47 | 1013.5 |
| 20260504012253 | 11 | 18 | 0.0 | 0.0 | 0.00 | 0.00 | 0.00 | 49 | 1013.5 |
| 20260504011750 | 11 | 26 | 0.0 | 0.0 | 0.00 | 0.00 | 0.00 | 49 | 1013.4 |
| 20260504011246 | 11 | 14 | 0.0 | 0.0 | 0.00 | 0.00 | 0.00 | 46 | 1013.5 |
| 20260504010743 | 12 | 18 | 0.0 | 0.0 | 0.00 | 0.00 | 0.00 | 45 | 1013.3 |
| 20260504010238 | 12 | 19 | 0.0 | 0.0 | 0.00 | 0.00 | 0.00 | 45 | 1013.3 |
| 20260504005735 | 12 | 9 | 0.0 | 0.0 | 0.00 | 0.00 | 0.00 | 45 | 1013.4 |
| 20260504005232 | 12 | 213 | 1.6 | 3.2 | 0.00 | 0.00 | 0.00 | 44 | 1013.4 |
| 20260504004730 | 12 | 334 | 1.6 | 1.6 | 0.00 | 0.00 | 0.00 | 43 | 1013.2 |
| 20260504004227 | 12 | 327 | 1.6 | 3.2 | 0.00 | 0.00 | 0.00 | 44 | 1013.3 |
| 20260504003723 | 12 | 165 | 3.2 | 3.2 | 0.00 | 0.00 | 0.00 | 43 | 1013.4 |
| 20260504003220 | 12 | 23 | 0.0 | 1.6 | 0.00 | 0.00 | 0.00 | 43 | 1013.2 |
| 20260504002717 | 13 | 11 | 0.0 | 0.0 | 0.00 | 0.00 | 0.00 | 44 | 1013.1 |
| 20260504002214 | 13 | 330 | 1.6 | 1.6 | 0.00 | 0.00 | 0.00 | 41 | 1013.2 |
| 20260504001712 | 13 | 354 | 1.6 | 1.6 | 0.00 | 0.00 | 0.00 | 40 | 1013.0 |
| 20260504001209 | 13 | 328 | 1.6 | 1.6 | 0.00 | 0.00 | 0.00 | 41 | 1013.2 |
| 20260504000705 | 13 | 336 | 1.6 | 1.6 | 0.00 | 0.00 | 0.00 | 42 | 1013.1 |
| 20260504000204 | 13 | 109 | 0.0 | 0.0 | 0.00 | 0.00 | 0.00 | 42 | 1013.2 |
| 20260503235700 | 13 | 352 | 1.6 | 1.6 | 0.00 | 0.00 | 0.00 | 41 | 1013.3 |
| 20260503235157 | 13 | 337 | 0.0 | 1.6 | 0.00 | 0.00 | 0.00 | 41 | 1013.2 |
| 20260503234655 | 13 | 355 | 1.6 | 4.8 | 0.00 | 0.00 | 0.00 | 41 | 1013.3 |
| 20260503234153 | 13 | 256 | 1.6 | 3.2 | 0.00 | 0.00 | 0.00 | 41 | 1013.3 |
| 20260503233649 | 13 | 197 | 3.2 | 4.8 | 0.00 | 0.00 | 0.00 | 40 | 1013.2 |
| 20260503233145 | 13 | 200 | 3.2 | 4.8 | 0.00 | 0.00 | 0.00 | 39 | 1013.3 |
| 20260503232642 | 13 | 13 | 1.6 | 3.2 | 0.00 | 0.00 | 0.00 | 41 | 1013.2 |
| 20260503232140 | 13 | 102 | 1.6 | 3.2 | 0.00 | 0.00 | 0.00 | 39 | 1013.4 |
| 20260503231638 | 13 | 332 | 1.6 | 3.2 | 0.00 | 0.00 | 0.00 | 41 | 1013.4 |
| 20260503231134 | 13 | 213 | 1.6 | 3.2 | 0.00 | 0.00 | 0.00 | 42 | 1013.2 |
| 20260503230631 | 14 | 275 | 3.2 | 3.2 | 0.00 | 0.00 | 0.00 | 40 | 1013.4 |
| 20260503230128 | 14 | 28 | 3.2 | 4.8 | 0.00 | 0.00 | 0.00 | 43 | 1013.4 |
| 20260503225626 | 14 | 142 | 1.6 | 3.2 | 0.00 | 0.00 | 0.00 | 38 | 1013.2 |
| 20260503225125 | 14 | 197 | 1.6 | 4.8 | 0.00 | 0.00 | 0.00 | 38 | 1013.2 |
| 20260503224622 | 14 | 48 | 3.2 | 4.8 | 0.00 | 0.00 | 0.00 | 39 | 1013.4 |
| 20260503224120 | 14 | 246 | 3.2 | 4.8 | 0.00 | 0.00 | 0.00 | 39 | 1013.4 |
| 20260503223618 | 14 | 344 | 3.2 | 3.2 | 0.00 | 0.00 | 0.00 | 40 | 1013.5 |
| 20260503223113 | 14 | 224 | 3.2 | 3.2 | 0.00 | 0.00 | 0.00 | 41 | 1013.5 |
| 20260503222612 | 14 | 49 | 4.8 | 4.8 | 0.00 | 0.00 | 0.00 | 38 | 1013.6 |
| 20260503222109 | 15 | 308 | 3.2 | 6.4 | 0.00 | 0.00 | 0.00 | 40 | 1013.4 |
| 20260503221607 | 15 | 197 | 3.2 | 4.8 | 0.00 | 0.00 | 0.00 | 39 | 1013.4 |
| 20260503221105 | 15 | 319 | 1.6 | 3.2 | 0.00 | 0.00 | 0.00 | 37 | 1013.5 |
| 20260503220601 | 15 | 215 | 3.2 | 3.2 | 0.00 | 0.00 | 0.00 | 37 | 1013.4 |
| 20260503220058 | 15 | 207 | 4.8 | 4.8 | 0.00 | 0.00 | 0.00 | 37 | 1013.6 |
| 20260503215555 | 15 | 214 | 6.4 | 6.4 | 0.00 | 0.00 | 0.00 | 38 | 1013.5 |
| 20260503215052 | 15 | 230 | 8.0 | 9.7 | 0.00 | 0.00 | 0.00 | 37 | 1013.6 |
| 20260503214550 | 15 | 190 | 8.0 | 9.7 | 0.00 | 0.00 | 0.00 | 36 | 1013.7 |
| 20260503214046 | 15 | 241 | 3.2 | 4.8 | 0.00 | 0.00 | 0.00 | 38 | 1013.3 |
| 20260503213544 | 15 | 22 | 1.6 | 3.2 | 0.00 | 0.00 | 0.00 | 38 | 1013.3 |
| 20260503213041 | 15 | 289 | 3.2 | 4.8 | 0.00 | 0.00 | 0.00 | 38 | 1013.2 |
| 20260503212538 | 15 | 24 | 3.2 | 4.8 | 0.00 | 0.00 | 0.00 | 38 | 1013.4 |
| 20260503212036 | 15 | 33 | 4.8 | 9.7 | 0.00 | 0.00 | 0.00 | 37 | 1013.4 |
| 20260503211533 | 15 | 162 | 4.8 | 11.3 | 0.00 | 0.00 | 0.00 | 38 | 1013.3 |
| 20260503211028 | 15 | 189 | 4.8 | 11.3 | 0.00 | 0.00 | 0.00 | 37 | 1013.4 |
| 20260503210525 | 15 | 15 | 3.2 | 4.8 | 0.00 | 0.00 | 0.00 | 40 | 1013.4 |
| 20260503210021 | 15 | 321 | 3.2 | 4.8 | 0.00 | 0.00 | 0.00 | 41 | 1013.4 |
| 20260503205518 | 15 | 12 | 4.8 | 6.4 | 0.00 | 0.00 | 0.00 | 38 | 1013.7 |
| 20260503205014 | 15 | 343 | 1.6 | 1.6 | 0.00 | 0.00 | 0.00 | 38 | 1013.7 |
| 20260503204511 | 16 | 300 | 1.6 | 3.2 | 0.00 | 0.00 | 0.00 | 39 | 1013.6 |
| 20260503204008 | 15 | 287 | 3.2 | 4.8 | 0.00 | 0.00 | 0.00 | 38 | 1013.7 |
| 20260503203506 | 15 | 198 | 3.2 | 4.8 | 0.00 | 0.00 | 0.00 | 37 | 1013.7 |
| 20260503203002 | 14 | 200 | 6.4 | 11.3 | 0.00 | 0.00 | 0.00 | 39 | 1014.0 |
| 20260503202500 | 14 | 198 | 6.4 | 12.9 | 0.00 | 0.00 | 0.00 | 38 | 1014.0 |
| 20260503201958 | 15 | 210 | 3.2 | 6.4 | 0.00 | 0.00 | 0.00 | 38 | 1013.9 |
| 20260503201456 | 15 | 31 | 1.6 | 1.6 | 0.00 | 0.00 | 0.00 | 41 | 1014.0 |
| 20260503200953 | 15 | 359 | 0.0 | 1.6 | 0.00 | 0.00 | 0.00 | 43 | 1014.1 |
| 20260503200449 | 15 | 286 | 4.8 | 4.8 | 0.00 | 0.00 | 0.00 | 39 | 1014.1 |
| 20260503195946 | 16 | 118 | 3.2 | 4.8 | 0.00 | 0.00 | 0.00 | 41 | 1014.1 |
| 20260503195443 | 16 | 8 | 1.6 | 1.6 | 0.00 | 0.00 | 0.00 | 37 | 1014.0 |
| 20260503194939 | 16 | 291 | 1.6 | 1.6 | 0.00 | 0.00 | 0.00 | 40 | 1014.3 |
| 20260503194437 | 16 | 207 | 4.8 | 6.4 | 0.00 | 0.00 | 0.00 | 36 | 1014.4 |
| 20260503193932 | 15 | 0 | 1.6 | 3.2 | 0.00 | 0.00 | 0.00 | 39 | 1014.5 |
| 20260503193428 | 15 | 9 | 4.8 | 9.7 | 0.00 | 0.00 | 0.00 | 38 | 1014.4 |
| 20260503192923 | 15 | 249 | 3.2 | 3.2 | 0.00 | 0.00 | 0.00 | 37 | 1014.5 |
| 20260503192420 | 16 | 105 | 3.2 | 6.4 | 0.00 | 0.00 | 0.00 | 38 | 1014.5 |
| 20260503191916 | 16 | 208 | 6.4 | 9.7 | 0.00 | 0.00 | 0.00 | 35 | 1014.7 |
| 20260503191414 | 16 | 187 | 6.4 | 9.7 | 0.00 | 0.00 | 0.00 | 36 | 1014.8 |
| 20260503190909 | 15 | 151 | 6.4 | 6.4 | 0.00 | 0.00 | 0.00 | 35 | 1014.9 |
| 20260503190407 | 15 | 206 | 3.2 | 9.7 | 0.00 | 0.00 | 0.00 | 37 | 1015.0 |
| 20260503185903 | 14 | 210 | 6.4 | 11.3 | 0.00 | 0.00 | 0.00 | 40 | 1015.2 |
| 20260503185400 | 15 | 231 | 1.6 | 6.4 | 0.00 | 0.00 | 0.00 | 37 | 1015.1 |
| 20260503184859 | 15 | 350 | 0.0 | 0.0 | 0.00 | 0.00 | 0.00 | 35 | 1015.2 |
| 20260503184356 | 15 | 288 | 3.2 | 4.8 | 0.00 | 0.00 | 0.00 | 40 | 1015.0 |
| 20260503183852 | 15 | 232 | 3.2 | 6.4 | 0.00 | 0.00 | 0.00 | 41 | 1015.2 |
| 20260503183349 | 15 | 200 | 6.4 | 6.4 | 0.00 | 0.00 | 0.00 | 37 | 1015.5 |
| 20260503182847 | 15 | 339 | 0.0 | 1.6 | 0.00 | 0.00 | 0.00 | 38 | 1015.6 |
| 20260503182345 | 16 | 211 | 4.8 | 4.8 | 0.00 | 0.00 | 0.00 | 40 | 1015.4 |
| 20260503181842 | 15 | 322 | 3.2 | 3.2 | 0.00 | 0.00 | 0.00 | 36 | 1015.6 |
| 20260503181339 | 16 | 348 | 3.2 | 4.8 | 0.00 | 0.00 | 0.00 | 36 | 1015.6 |
| 20260503180836 | 16 | 356 | 1.6 | 1.6 | 0.00 | 0.00 | 0.00 | 36 | 1015.7 |
| 20260503180334 | 15 | 219 | 3.2 | 4.8 | 0.00 | 0.00 | 0.00 | 36 | 1015.6 |
| 20260503175830 | 14 | 80 | 1.6 | 4.8 | 0.00 | 0.00 | 0.00 | 39 | 1015.8 |
| 20260503175328 | 15 | 204 | 6.4 | 6.4 | 0.00 | 0.00 | 0.00 | 40 | 1015.8 |
| 20260503174828 | 15 | 281 | 1.6 | 1.6 | 0.00 | 0.00 | 0.00 | 38 | 1015.9 |
| 20260503174327 | 15 | 15 | 1.6 | 1.6 | 0.00 | 0.00 | 0.00 | 40 | 1016.0 |
| 20260503173822 | 14 | 212 | 3.2 | 4.8 | 0.00 | 0.00 | 0.00 | 40 | 1016.1 |
| 20260503173319 | 15 | 13 | 3.2 | 6.4 | 0.00 | 0.00 | 0.00 | 43 | 1016.0 |
| 20260503172816 | 14 | 64 | 1.6 | 3.2 | 0.00 | 0.00 | 0.00 | 43 | 1016.1 |
| 20260503172314 | 15 | 205 | 8.0 | 9.7 | 0.00 | 0.00 | 0.00 | 37 | 1016.1 |
| 20260503171809 | 15 | 309 | 1.6 | 1.6 | 0.00 | 0.00 | 0.00 | 34 | 1016.1 |
| 20260503171306 | 14 | 15 | 0.0 | 1.6 | 0.00 | 0.00 | 0.00 | 43 | 1016.3 |
| 20260503170804 | 13 | 6 | 1.6 | 1.6 | 0.00 | 0.00 | 0.00 | 44 | 1016.4 |
| 20260503170300 | 13 | 217 | 1.6 | 6.4 | 0.00 | 0.00 | 0.00 | 40 | 1016.3 |
| 20260503150652 | 11 | 217 | 3.2 | 4.8 | 0.00 | 0.00 | 0.00 | 46 | 1017.3 |
| 20260503150148 | 10 | 230 | 3.2 | 3.2 | 0.00 | 0.00 | 0.00 | 48 | 1017.3 |
| 20260503140113 | 8 | 222 | 4.8 | 4.8 | 0.00 | 0.00 | 0.00 | 62 | 1017.7 |
| 20260503131042 | 6 | 327 | 1.6 | 3.2 | 0.00 | 0.00 | 0.00 | 73 | 1017.7 |
| 20260503130539 | 5 | 334 | 0.0 | 0.0 | 0.00 | 0.00 | 0.00 | 73 | 1017.8 |
| 20260503110435 | 1 | 20 | 0.0 | 0.0 | 0.00 | 0.00 | 0.00 | 92 | 1017.1 |
| 20260503090326 | 1 | 19 | 0.0 | 0.0 | 0.00 | 0.00 | 0.00 | 90 | 1016.2 |
| 20260503081254 | 1 | 19 | 0.0 | 0.0 | 0.00 | 0.00 | 0.00 | 87 | 1016.2 |
| 20260503080749 | 2 | 19 | 0.0 | 0.0 | 0.00 | 0.00 | 0.00 | 87 | 1016.2 |
| 20260503080247 | 2 | 20 | 0.0 | 0.0 | 0.00 | 0.00 | 0.00 | 87 | 1016.2 |
| 20260503072724 | 2 | 18 | 0.0 | 0.0 | 0.00 | 0.00 | 0.00 | 89 | 1016.1 |
| 20260503072220 | 2 | 18 | 0.0 | 0.0 | 0.00 | 0.00 | 0.00 | 89 | 1016.1 |
| 20260503071717 | 2 | 23 | 0.0 | 0.0 | 0.00 | 0.00 | 0.00 | 89 | 1016.1 |
| 20260503071214 | 2 | 21 | 0.0 | 0.0 | 0.00 | 0.00 | 0.00 | 89 | 1016.1 |
| 20260503070710 | 2 | 21 | 0.0 | 0.0 | 0.00 | 0.00 | 0.00 | 89 | 1016.1 |
| 20260503070209 | 2 | 21 | 0.0 | 0.0 | 0.00 | 0.00 | 0.00 | 89 | 1016.1 |
| 20260503060139 | 2 | 19 | 0.0 | 0.0 | 0.00 | 0.00 | 0.00 | 89 | 1016.1 |
| 20260503054626 | 2 | 18 | 0.0 | 0.0 | 0.00 | 0.00 | 0.00 | 89 | 1016.0 |
| 20260503054123 | 2 | 19 | 0.0 | 0.0 | 0.00 | 0.00 | 0.00 | 89 | 1016.1 |
| 20260503053621 | 2 | 16 | 0.0 | 0.0 | 0.00 | 0.00 | 0.00 | 88 | 1016.1 |
| 20260503053119 | 2 | 17 | 0.0 | 0.0 | 0.00 | 0.00 | 0.00 | 88 | 1016.0 |
| 20260503052615 | 2 | 13 | 0.0 | 0.0 | 0.00 | 0.00 | 0.00 | 88 | 1016.4 |
| 20260503052112 | 2 | 13 | 0.0 | 0.0 | 0.00 | 0.00 | 0.00 | 88 | 1016.3 |
| 20260503051607 | 2 | 13 | 0.0 | 0.0 | 0.00 | 0.00 | 0.00 | 88 | 1016.4 |
| 20260503051105 | 2 | 13 | 0.0 | 0.0 | 0.00 | 0.00 | 0.00 | 88 | 1016.3 |
| 20260503050601 | 2 | 13 | 0.0 | 0.0 | 0.00 | 0.00 | 0.00 | 87 | 1016.2 |
| 20260503050058 | 2 | 14 | 0.0 | 0.0 | 0.00 | 0.00 | 0.00 | 87 | 1016.4 |
| 20260503045555 | 2 | 14 | 0.0 | 0.0 | 0.00 | 0.00 | 0.00 | 87 | 1016.3 |
| 20260503045052 | 2 | 21 | 0.0 | 0.0 | 0.00 | 0.00 | 0.00 | 86 | 1016.4 |
| 20260503044549 | 2 | 21 | 0.0 | 0.0 | 0.00 | 0.00 | 0.00 | 86 | 1016.3 |
| 20260503044047 | 2 | 22 | 0.0 | 0.0 | 0.00 | 0.00 | 0.00 | 86 | 1016.4 |
| 20260503043543 | 2 | 21 | 0.0 | 0.0 | 0.00 | 0.00 | 0.00 | 85 | 1016.4 |
| 20260503043040 | 2 | 18 | 0.0 | 0.0 | 0.00 | 0.00 | 0.00 | 84 | 1016.5 |
| 20260503042537 | 2 | 18 | 0.0 | 0.0 | 0.00 | 0.00 | 0.00 | 84 | 1016.4 |